Latest Weather Observations for Redcliffe

IDQ60901

Issued at 8:35 am EST Thursday 21 August 2014 (issued every 10 minutes, with the page automatically refreshed every 10 minutes)

About weather observations | Map of Brisbane area stations | Latest observations for Brisbane area | Other Formats
Station Details ID: 040958 Name: REDCLIFFE Lat: -27.22 Lon: 153.09 Height: 12.6 m
Data from the previous 72 hours. | See also: Recent months at Redcliffe
Date/Time
EST
Tmp

°C
App
Tmp
°C
Dew
Point
°C
Rel
Hum
%
Delta-T

°C
Wind Press
QNH
hPa
Press
MSL
hPa
Rain
since
9 am
mm
Dir
 
Spd
km/h
Gust
km/h
Spd
kts
Gust
kts
21/08:30am 16.8 13.4 9.2 61 3.9 SSW 17 24 9 13 1023.1 1023.1 0.0
21/08:00am 15.5 12.1 9.2 66 3.2 SSW 17 26 9 14 1023.0 1023.0 0.0
21/07:30am 14.5 9.4 9.1 70 2.8 SSW 26 33 14 18 1022.1 1022.1 0.0
21/07:00am 13.6 9.1 8.7 72 2.5 SSW 22 32 12 17 1022.0 1022.0 0.0
21/06:30am 13.2 9.4 8.9 75 2.2 SSW 19 30 10 16 1022.0 1022.0 0.0
21/06:00am 13.0 9.5 8.9 76 2.1 SSW 17 24 9 13 1022.0 1022.0 0.0
21/05:30am 13.3 9.9 9.2 76 2.1 SSW 17 26 9 14 1021.8 1021.8 0.0
21/05:00am 13.1 10.5 9.4 78 1.9 SSW 13 19 7 10 1021.6 1021.6 0.0
21/04:30am 13.1 10.5 9.4 78 1.9 SSW 13 17 7 9 1021.5 1021.5 0.0
21/04:00am 13.0 10.0 9.3 78 1.9 SSW 15 20 8 11 1021.3 1021.3 0.0
21/03:30am 13.1 10.1 9.2 77 2.0 SSW 15 22 8 12 1021.2 1021.2 0.0
21/03:00am 12.9 10.2 8.8 76 2.0 SW 13 17 7 9 1021.4 1021.4 0.0
21/02:30am 13.2 10.1 8.9 75 2.2 SW 15 19 8 10 1021.5 1021.5 0.0
21/02:00am 13.2 10.4 8.7 74 2.2 SSW 13 17 7 9 1021.6 1021.6 0.0
21/01:30am 13.5 11.2 9.0 74 2.3 SSW 11 15 6 8 1021.7 1021.7 0.0
21/01:00am 13.9 11.2 8.9 72 2.5 SSW 13 17 7 9 1021.9 1021.9 0.0
21/12:30am 14.5 11.9 9.3 71 2.7 SSW 13 19 7 10 1022.0 1022.0 0.0
21/12:00am 15.2 12.4 10.0 71 2.7 SSW 15 20 8 11 1022.0 1022.0 0.0
 
Date/Time
EST
Tmp

°C
App
Tmp
°C
Dew
Point
°C
Rel
Hum
%
Delta-T

°C
Wind Press
QNH
hPa
Press
MSL
hPa
Rain
since
9 am
mm
Dir
 
Spd
km/h
Gust
km/h
Spd
kts
Gust
kts
20/11:30pm 15.7 11.3 10.5 71 2.7 S 24 30 13 16 1022.1 1022.1 0.0
20/11:00pm 16.1 11.0 10.6 70 2.9 S 28 32 15 17 1022.2 1022.2 0.0
20/10:30pm 16.4 10.9 10.7 69 3.0 S 30 33 16 18 1022.3 1022.3 0.0
20/10:00pm 16.5 11.4 10.6 68 3.1 S 28 33 15 18 1022.3 1022.3 0.0
20/09:30pm 16.9 11.8 10.7 67 3.3 S 28 33 15 18 1022.1 1022.1 0.0
20/09:00pm 17.2 11.3 11.0 67 3.3 SSE 33 37 18 20 1022.1 1022.1 0.0
20/08:30pm 17.4 11.6 11.4 68 3.3 SSE 33 39 18 21 1021.9 1021.9 0.0
20/08:00pm 17.6 11.8 11.4 67 3.4 SSE 33 39 18 21 1021.8 1021.8 0.0
20/07:30pm 18.1 11.6 10.2 60 4.2 SSE 35 44 19 24 1021.2 1021.2 0.0
20/07:00pm 18.1 12.2 11.2 64 3.7 SE 33 39 18 21 1021.1 1021.1 0.0
20/06:30pm 17.9 12.4 11.7 67 3.4 SE 32 37 17 20 1020.5 1020.5 0.0
20/06:00pm 18.0 12.4 12.0 68 3.3 SE 33 37 18 20 1020.0 1020.0 0.0
20/05:30pm 18.2 12.6 11.5 65 3.7 SE 32 35 17 19 1019.5 1019.5 0.0
20/05:00pm 18.5 13.7 11.6 64 3.8 SE 28 33 15 18 1019.3 1019.3 0.0
20/04:30pm 18.9 13.7 11.5 62 4.1 SE 30 35 16 19 1018.7 1018.7 0.0
20/04:00pm 19.3 16.0 10.8 58 4.6 SE 19 22 10 12 1018.4 1018.4 0.0
20/03:30pm 19.3 15.6 10.3 56 4.8 ESE 20 26 11 14 1018.2 1018.2 0.0
20/03:00pm 19.9 16.3 10.0 53 5.3 ESE 19 24 10 13 1018.1 1018.1 0.0
20/02:30pm 20.0 16.8 9.9 52 5.4 SE 17 19 9 10 1018.1 1018.1 0.0
20/02:00pm 20.0 16.3 9.6 51 5.5 ESE 19 24 10 13 1018.3 1018.3 0.0
20/01:30pm 19.7 16.4 9.6 52 5.4 ESE 17 28 9 15 1018.4 1018.4 0.0
20/01:00pm 20.4 17.3 10.2 52 5.5 SE 17 19 9 10 1018.6 1018.6 0.0
20/12:30pm 19.6 17.4 7.7 46 6.1 SE 9 11 5 6 1018.7 1018.7 0.0
20/12:00pm 19.7 17.2 8.1 47 6.0 E 11 13 6 7 1019.0 1019.0 0.0
20/11:30am 19.6 17.3 7.4 45 6.2 SE 9 13 5 7 1019.4 1019.4 0.0
20/11:00am 20.5 17.5 7.5 43 6.7 S 13 15 7 8 1019.7 1019.7 0.0
20/10:30am 20.4 16.5 7.1 42 6.8 S 17 19 9 10 1019.9 1019.9 0.0
20/10:00am 20.0 16.2 7.4 44 6.4 S 17 24 9 13 1020.1 1020.1 0.0
20/09:30am 19.5 15.8 7.9 47 6.0 S 17 24 9 13 1020.1 1020.1 0.0
20/09:00am 18.3 14.5 7.7 50 5.4 SSW 17 22 9 12 1020.0 1020.0 0.0
20/08:30am 17.5 14.0 8.6 56 4.6 SSW 17 24 9 13 1019.9 1019.9 0.0
20/08:00am 15.6 12.8 8.6 63 3.5 SW 13 17 7 9 1019.9 1019.9 0.0
20/07:30am 14.0 11.1 8.0 67 3.0 WSW 13 17 7 9 1019.8 1019.8 0.0
20/07:00am 12.2 9.3 8.1 76 2.0 WSW 13 15 7 8 1019.4 1019.4 0.0
20/06:30am 10.7 7.3 7.6 81 1.5 SW 15 17 8 9 1019.0 1019.0 0.0
20/06:00am 11.1 8.8 7.6 79 1.7 WSW 9 13 5 7 1018.7 1018.7 0.0
20/05:30am 11.8 9.2 7.9 77 1.9 WSW 11 13 6 7 1018.4 1018.4 0.0
20/05:00am 11.9 9.7 7.8 76 2.0 WSW 9 11 5 6 1017.8 1017.8 0.0
20/04:30am 11.5 9.0 8.0 79 1.7 SW 11 15 6 8 1017.5 1017.5 0.0
20/04:00am 11.5 8.5 7.8 78 1.8 WSW 13 17 7 9 1017.2 1017.2 0.0
20/03:30am 11.7 8.7 7.8 77 1.9 WSW 13 15 7 8 1016.9 1016.9 0.0
20/03:00am 11.3 8.9 7.2 76 2.0 WSW 9 11 5 6 1016.7 1016.7 0.0
20/02:30am 11.9 9.5 7.2 73 2.3 WSW 9 13 5 7 1016.8 1016.8 0.0
20/02:00am 12.6 9.9 7.5 71 2.5 WSW 11 15 6 8 1016.8 1016.8 0.0
20/01:30am 12.9 10.1 7.1 68 2.8 WSW 11 13 6 7 1016.7 1016.7 0.0
20/01:00am 13.4 11.0 7.0 65 3.1 WSW 9 13 5 7 1016.6 1016.6 0.0
20/12:30am 13.9 11.5 7.2 64 3.3 W 9 13 5 7 1016.7 1016.7 0.0
20/12:00am 14.0 11.2 7.1 63 3.4 WSW 11 13 6 7 1016.7 1016.7 0.0
 
Date/Time
EST
Tmp

°C
App
Tmp
°C
Dew
Point
°C
Rel
Hum
%
Delta-T

°C
Wind Press
QNH
hPa
Press
MSL
hPa
Rain
since
9 am
mm
Dir
 
Spd
km/h
Gust
km/h
Spd
kts
Gust
kts
19/11:30pm 14.5 11.4 7.1 61 3.6 WSW 13 17 7 9 1016.7 1016.7 0.0
19/11:00pm 14.1 11.2 6.5 60 3.7 WSW 11 15 6 8 1016.7 1016.7 0.0
19/10:30pm 15.0 11.7 6.3 56 4.2 W 13 17 7 9 1016.4 1016.4 0.0
19/10:00pm 15.5 12.3 6.8 56 4.3 WSW 13 19 7 10 1016.3 1016.3 0.0
19/09:30pm 15.9 13.0 6.3 53 4.7 WSW 11 19 6 10 1016.3 1016.3 0.0
19/09:00pm 16.5 13.2 6.3 51 5.0 W 13 15 7 8 1016.0 1016.0 0.0
19/08:30pm 17.2 13.1 6.1 48 5.4 WSW 17 28 9 15 1015.8 1015.8 0.0
19/08:00pm 17.1 13.4 6.3 49 5.3 WSW 15 24 8 13 1015.6 1015.6 0.0
19/07:30pm 17.4 13.3 6.0 47 5.6 WSW 17 24 9 13 1015.3 1015.3 0.0
19/07:00pm 18.5 14.3 5.7 43 6.3 WSW 17 30 9 16 1014.7 1014.7 0.0
19/06:30pm 18.9 13.7 5.7 42 6.5 WSW 22 33 12 18 1014.2 1014.2 0.0
19/06:00pm 19.2 15.0 5.6 41 6.7 WSW 17 32 9 17 1013.8 1013.8 0.0
19/05:30pm 19.6 14.9 5.3 39 7.0 WSW 19 28 10 15 1012.9 1012.9 0.0
19/05:00pm 20.6 15.1 5.8 38 7.4 WSW 24 35 13 19 1012.2 1012.2 0.0
19/04:30pm 21.2 16.5 5.9 37 7.7 WSW 20 35 11 19 1011.9 1011.9 0.0
19/04:00pm 21.7 14.6 5.6 35 8.0 W 32 44 17 24 1011.7 1011.7 0.0
19/03:30pm 21.9 15.9 5.3 34 8.3 W 26 39 14 21 1011.2 1011.2 0.0
19/03:00pm 22.3 15.9 5.3 33 8.5 W 28 39 15 21 1011.1 1011.1 0.0
19/02:30pm 22.5 17.9 6.3 35 8.2 W 20 32 11 17 1011.2 1011.2 0.0
19/02:00pm 22.3 16.8 6.1 35 8.2 W 24 39 13 21 1011.4 1011.4 0.0
19/01:30pm 21.6 15.4 6.3 37 7.7 W 28 35 15 19 1011.4 1011.4 0.0
19/01:00pm 21.3 16.1 5.6 36 7.8 W 22 41 12 22 1011.5 1011.5 0.0
19/12:30pm 21.7 17.4 6.8 38 7.6 WSW 19 28 10 15 1011.8 1011.8 0.0
19/12:00pm 20.8 16.4 6.4 39 7.3 W 19 28 10 15 1012.3 1012.3 0.0
19/11:30am 20.2 14.8 6.2 40 7.0 W 24 32 13 17 1012.7 1012.7 0.0
19/11:00am 19.5 15.0 6.3 42 6.6 SW 19 28 10 15 1013.0 1013.0 0.0
19/10:30am 19.6 14.3 7.0 44 6.4 W 24 35 13 19 1013.5 1013.5 0.0
19/10:00am 18.7 12.7 6.9 46 5.9 WSW 28 37 15 20 1013.7 1013.7 0.0
19/09:30am 18.2 13.3 6.7 47 5.7 WSW 22 33 12 18 1013.6 1013.6 0.0
19/09:00am 17.9 13.5 7.3 50 5.3 WSW 20 30 11 16 1013.8 1013.8 0.0
19/08:30am 17.3 12.4 7.1 51 5.1 W 22 32 12 17 1013.9 1013.9 0.0
19/08:00am 16.2 12.7 7.4 56 4.4 WNW 15 19 8 10 1013.7 1013.7 0.0
19/07:30am 15.0 11.3 8.0 63 3.5 NNW 17 24 9 13 1013.7 1013.7 0.0
19/07:00am 13.6 10.5 7.4 66 3.0 N 13 20 7 11 1013.4 1013.4 0.0
19/06:30am 13.3 9.0 6.9 65 3.1 W 19 32 10 17 1013.3 1013.3 0.0
19/06:00am 13.6 9.7 7.2 65 3.1 W 17 24 9 13 1013.0 1013.0 0.0
19/05:30am 13.5 10.3 6.8 64 3.2 W 13 19 7 10 1012.8 1012.8 0.0
19/05:00am 13.2 11.0 6.3 63 3.3 WNW 7 19 4 10 1012.3 1012.3 0.0
19/04:30am 14.0 11.1 6.6 61 3.6 WNW 11 19 6 10 1012.3 1012.3 0.0
19/04:00am 13.9 10.2 6.3 60 3.6 W 15 24 8 13 1012.1 1012.1 0.0
19/03:30am 14.6 10.8 5.9 56 4.2 W 15 22 8 12 1012.2 1012.2 0.0
19/03:00am 14.7 10.6 6.0 56 4.2 WSW 17 26 9 14 1012.2 1012.2 0.0
19/02:30am 15.0 10.8 5.8 54 4.4 WSW 17 26 9 14 1012.1 1012.1 0.0
19/02:00am 15.0 10.4 5.8 54 4.4 WSW 19 30 10 16 1012.3 1012.3 0.0
19/01:30am 16.0 12.2 5.6 50 5.0 WSW 15 24 8 13 1012.3 1012.3 0.0
19/01:00am 16.3 11.6 5.9 50 5.0 W 20 28 11 15 1012.3 1012.3 0.0
19/12:30am 16.2 9.9 5.5 49 5.1 W 28 44 15 24 1012.5 1012.5 0.0
19/12:18am 16.4 10.0 5.4 48 5.3 W 28 54 15 29 1012.6 1012.6 0.0
19/12:00am 16.7 10.8 5.6 48 5.4 WSW 26 41 14 22 1012.6 1012.6 0.0
 
Date/Time
EST
Tmp

°C
App
Tmp
°C
Dew
Point
°C
Rel
Hum
%
Delta-T

°C
Wind Press
QNH
hPa
Press
MSL
hPa
Rain
since
9 am
mm
Dir
 
Spd
km/h
Gust
km/h
Spd
kts
Gust
kts
18/11:51pm 16.8 10.4 5.1 46 5.6 WSW 28 46 15 25 1012.7 1012.7 0.0
18/11:30pm 17.0 10.6 5.0 45 5.7 WSW 28 43 15 23 1012.9 1012.9 0.0
18/11:00pm 17.2 10.4 4.9 44 5.9 W 30 50 16 27 1012.8 1012.8 0.0
18/10:58pm 17.2 10.8 5.2 45 5.8 W 28 50 15 27 1012.9 1012.9 0.0
18/10:30pm 17.4 11.3 5.0 44 5.9 W 26 44 14 24 1013.0 1013.0 0.0
18/10:00pm 17.3 12.0 4.9 44 5.9 WSW 22 37 12 20 1013.1 1013.1 0.0
18/09:30pm 17.1 12.8 5.1 45 5.7 W 17 30 9 16 1013.1 1013.1 0.0
18/09:00pm 17.3 12.9 4.9 44 5.9 W 17 30 9 16 1013.1 1013.1 0.0
18/08:30pm 17.4 13.0 5.0 44 5.9 W 17 30 9 16 1012.9 1012.9 0.0
18/08:00pm 17.4 13.0 5.0 44 5.9 W 17 35 9 19 1012.8 1012.8 0.0
18/07:30pm 17.3 14.4 4.9 44 5.9 WNW 9 17 5 9 1012.5 1012.5 0.0
18/07:00pm 17.3 12.9 4.9 44 5.9 WNW 17 30 9 16 1011.9 1011.9 0.0
18/06:30pm 17.7 13.3 5.0 43 6.1 W 17 28 9 15 1011.5 1011.5 0.0
18/06:00pm 18.0 14.0 4.9 42 6.3 W 15 26 8 14 1011.2 1011.2 0.0
18/05:30pm 18.1 13.1 4.7 41 6.4 W 20 32 11 17 1010.6 1010.6 0.0
18/05:00pm 18.5 12.9 5.4 42 6.4 W 24 41 13 22 1010.0 1010.0 0.0
18/04:30pm 18.6 12.2 5.1 41 6.5 W 28 41 15 22 1009.2 1009.1 0.0
18/04:00pm 19.9 13.5 5.2 38 7.2 W 28 46 15 25 1008.8 1008.7 0.0
18/03:59pm 19.8 13.3 4.7 37 7.3 W 28 46 15 25 1008.7 1008.6 0.0
18/03:30pm 20.5 14.0 4.9 36 7.6 W 28 43 15 23 1008.6 1008.5 0.0
18/03:00pm 20.9 16.2 6.1 38 7.4 W 20 33 11 18 1008.3 1008.2 0.0
18/02:30pm 20.7 13.7 5.9 38 7.4 W 32 48 17 26 1008.3 1008.2 0.0
18/02:22pm 20.1 13.6 4.6 36 7.5 W 28 48 15 26 1008.1 1008.0 0.0
18/02:00pm 20.6 15.5 5.8 38 7.4 W 22 41 12 22 1008.4 1008.3 0.0
18/01:30pm 20.1 14.0 5.0 37 7.4 W 26 37 14 20 1008.3 1008.2 0.0
18/01:00pm 20.5 14.4 6.4 40 7.1 W 28 35 15 19 1008.7 1008.6 0.0
18/12:30pm 19.7 13.6 5.0 38 7.2 W 26 44 14 24 1009.0 1008.9 0.0
18/12:00pm 18.9 13.0 3.9 37 7.1 W 24 35 13 19 1009.5 1009.4 0.0
18/11:30am 18.9 13.2 4.7 39 6.8 W 24 39 13 21 1010.1 1010.1 0.0
18/11:00am 18.7 13.0 4.8 40 6.7 W 24 44 13 24 1010.6 1010.6 0.0
18/10:43am 18.0 11.7 5.6 44 6.0 W 28 48 15 26 1010.6 1010.6 0.0
18/10:30am 17.7 12.0 5.0 43 6.1 W 24 35 13 19 1010.9 1010.9 0.0
18/10:00am 17.4 11.0 5.4 45 5.8 W 28 37 15 20 1011.3 1011.3 0.0
18/09:30am 16.7 10.3 5.0 46 5.6 W 28 39 15 21 1011.4 1011.4 0.0
18/09:00am 16.6 10.6 5.3 47 5.4 W 26 39 14 21 1011.5 1011.5 0.0

Latest Capital City Observations: Canberra | Sydney | Melbourne | Brisbane | Adelaide | Perth | Hobart | Darwin

Other Formats:

Comma delimited format used in spreadsheet applications
http://www.bom.gov.au/fwo/IDQ60901/IDQ60901.95591.axf

JavaScript Object Notation format (JSON) in row-major order
http://www.bom.gov.au/fwo/IDQ60901/IDQ60901.95591.json